GFSCGP_prec_cloud_162.txt.gz
Cloud_Cover
100 100 100 100 100 100 100 100 100 100 65 5 5 26 11 5 6 78 34 34 44 5 5 2 4 98 5 5 5 5 0 5 99 100 83 5 5 0 7 87 100 100 100 92
100 58 100 100 100 100 100 100 100 100 100 100 99 17 16 5 5 5 7 71 55 85 100 88 79 86 88 98 93 97 100 100 100 8 5 5 5 2 1 48 58 88 100 100
100 99 100 95 100 100 100 100 100 100 100 100 100 100 100 100 99 95 100 100 100 100 100 100 100 100 100 99 100 100 100 100 57 38 8 5 5 12 100 100 99 100 100 100
100 87 100 100 100 100 100 100 100 100 100 100 100 38 100 100 100 100 100 100 100 100 100 100 100 100 100 100 100 78 8 5 5 5 5 5 2 32 27 52 84 92 100 100
100 100 100 100 100 100 100 100 100 100 97 53 5 46 100 100 100 100 100 100 100 100 100 100 100 100 100 98 19 4 3 4 5 5 6 3 82 100 100 100 100 100 100 100
98 100 100 100 100 100 100 100 100 30 28 89 90 36 52 100 100 100 100 100 100 100 100 50 8 16 33 19 4 2 4 5 8 89 100 100 100 100 100 100 100 100 100 100
100 89 100 100 100 100 100 100 100 100 100 35 100 71 5 89 84 100 100 100 100 100 100 100 100 100 39 5 5 4 4 5 6 96 100 100 100 100 100 100 100 100 100 100
100 100 100 100 100 100 100 100 100 100 100 93 100 12 5 98 66 100 100 100 100 100 100 100 100 94 97 100 55 18 8 71 79 64 74 100 100 100 100 100 89 61 33 16
100 100 100 100 100 100 100 100 100 100 99 99 86 8 5 100 100 100 100 100 100 100 100 100 100 100 100 100 100 100 100 100 100 100 98 63 5 5 5 30 25 8 8 5
100 100 100 100 100 100 86 100 100 100 100 97 65 100 100 100 100 100 97 100 100 100 100 99 27 5 15 84 92 100 100 95 58 66 62 89 60 14 31 9 5 11 40 75
100 100 100 100 100 100 100 100 100 100 100 100 85 51 82 92 15 87 99 100 100 84 45 58 11 9 63 100 33 14 27 74 100 100 100 100 100 100 83 72 96 88 82 98
100 100 100 100 100 100 100 100 100 100 100 100 93 9 84 40 3 5 100 100 100 7 5 5 5 55 11 5 5 5 5 23 66 38 94 100 100 100 100 100 100 100 99 99
100 100 100 100 100 100 100 100 100 100 100 100 90 14 100 5 5 4 2 33 85 100 100 99 64 61 5 5 5 5 18 13 5 1 3 12 64 32 5 5 26 77 91 100
100 100 100 100 100 100 100 100 100 100 100 21 39 2 100 6 100 100 100 100 59 35 25 5 31 40 55 19 5 5 5 5 13 40 7 5 57 59 96 100 100 100 95 100
100 100 100 100 100 100 100 100 100 100 100 93 34 75 5 100 99 53 58 98 40 8 5 5 5 5 16 5 5 30 48 11 21 65 99 71 5 23 62 64 100 100 100 100
100 100 100 100 100 100 100 100 100 100 100 100 79 47 32 100 100 100 93 5 5 82 100 38 5 6 11 5 5 45 74 98 85 48 29 9 81 83 86 92 86 100 100 68
100 100 100 98 100 100 100 46 60 93 86 100 100 100 100 100 100 100 77 28 1 4 54 99 100 100 90 40 43 6 7 28 50 18 85 78 85 97 93 97 94 95 89 69
100 100 100 99 100 100 51 100 100 100 100 100 100 100 100 100 100 100 98 79 100 100 100 100 72 17 26 87 38 14 90 89 97 98 84 96 100 100 100 96 90 77 78 97
99 52 100 100 100 100 100 84 100 100 98 100 45 79 100 100 100 99 86 100 100 100 43 98 96 90 78 50 64 74 92 100 100 52 66 99 100 90 97 100 100 100 100 100
100 100 100 100 98 77 38 42 7 8 48 98 75 66 44 99 100 100 100 100 100 100 99 100 100 84 56 98 71 47 76 95 100 100 94 100 100 74 94 100 99 100 100 91
100 100 100 95 100 85 1 37 66 95 58 93 73 86 97 98 97 60 24 22 40 30 31 42 10 8 93 66 58 61 76 100 100 97 100 100 100 100 100 100 100 99 35 5
100 99 91 100 100 82 1 5 3 5 34 49 59 68 90 80 84 100 17 35 75 100 87 73 66 70 28 42 63 94 97 100 100 100 100 100 100 100 100 100 100 99 13 6
25 5 4 66 86 64 0 0 0 0 4 0 3 1 95 76 85 100 100 42 85 8 7 57 97 56 5 67 99 94 100 100 100 100 100 100 100 100 100 100 100 84 100 100
0 0 0 2 2 2 1 1 3 5 5 42 4 0 62 100 98 100 100 54 80 42 94 58 5 77 100 100 100 100 100 100 100 100 100 99 100 100 100 100 100 100 100 100
63 100 21 6 2 8 14 5 5 5 2 0 0 2 100 100 76 61 100 100 95 90 36 53 97 100 100 100 100 100 100 100 100 100 100 99 100 100 100 100 100 100 100 100
59 100 100 100 100 70 2 0 50 89 5 3 0 94 100 100 100 34 100 100 100 100 97 98 100 100 100 100 100 100 100 100 100 100 100 100 100 100 100 100 100 100 100 100

GFSCGP_prec_cloud_165.txt.gz
Cloud_Cover
100 100 100 100 100 100 100 100 100 100 100 100 100 100 100 54 5 7 54 84 99 5 1 3 5 53 29 4 4 5 5 70 18 81 97 16 57 100 11 5 17 100 100 100
100 68 100 100 100 100 100 100 100 100 100 100 100 100 100 100 40 29 38 99 98 98 8 2 5 66 5 1 0 2 54 59 91 100 8 62 100 20 1 3 5 100 100 100
100 100 100 100 100 100 100 100 100 100 100 100 100 97 100 100 100 79 100 100 58 5 4 4 5 4 5 9 40 91 100 100 99 25 80 95 14 5 2 48 100 100 100 100
100 100 100 100 100 100 100 100 100 100 100 100 87 10 100 100 100 97 100 100 100 100 100 100 100 100 100 100 100 100 91 29 5 5 8 2 0 3 62 98 100 100 100 100
100 100 100 100 100 100 100 100 100 100 100 37 24 10 85 100 100 100 100 100 100 100 100 100 100 100 85 37 8 47 74 5 6 5 4 3 5 5 45 100 100 100 100 100
64 63 79 100 100 100 100 100 100 100 100 94 99 28 99 100 100 100 100 100 100 100 100 100 100 65 10 5 5 5 5 5 5 43 81 56 12 30 100 100 100 100 100 100
100 93 100 100 100 100 100 100 100 100 94 44 99 82 36 100 100 100 100 100 100 100 100 100 100 100 100 69 13 42 100 99 75 62 60 33 51 100 100 100 100 100 100 100
100 96 84 100 100 100 100 100 98 100 97 92 100 10 5 18 100 100 100 100 98 100 100 100 100 100 100 100 100 98 89 13 5 5 5 37 100 100 100 100 100 100 100 100
100 99 100 100 100 100 100 76 99 100 80 22 64 51 7 6 28 100 100 100 100 100 100 100 100 100 100 95 63 6 5 6 40 95 31 5 5 5 21 56 44 52 5 70
100 100 100 100 100 98 81 100 100 100 98 62 0 6 73 100 100 100 100 100 100 100 100 100 100 100 100 86 22 21 78 87 70 5 5 6 69 88 5 13 45 21 16 5
100 100 100 100 100 100 100 100 100 100 100 98 6 2 27 88 98 100 100 100 100 100 100 100 100 100 99 10 8 25 96 46 8 5 5 5 8 5 43 57 41 33 13 5
100 100 100 100 100 100 100 100 100 100 100 100 100 43 82 100 40 5 9 100 100 100 100 100 100 65 68 78 99 86 5 5 5 5 51 54 96 84 61 13 16 35 6 9
100 100 100 100 100 62 64 100 100 100 100 100 95 9 100 74 83 71 28 9 6 91 87 95 100 100 98 58 3 3 5 5 7 5 5 10 67 40 5 12 5 5 34 28
100 100 100 100 100 100 96 94 100 100 100 80 70 10 99 71 80 69 16 51 17 5 6 31 59 30 5 5 5 12 8 5 5 5 5 5 5 5 5 5 5 98 87 10
100 100 100 100 100 97 100 100 100 100 88 100 41 61 36 100 45 9 5 66 78 88 96 57 5 5 5 5 47 98 29 5 5 5 5 5 5 7 5 5 5 29 65 23
100 100 100 100 100 100 100 100 100 100 100 100 80 13 97 100 100 100 62 100 100 100 70 14 6 6 8 5 5 5 7 5 5 5 5 6 13 15 17 5 48 62 31 60
100 100 100 97 98 100 100 93 68 88 99 100 100 100 100 100 100 100 82 100 84 14 46 96 100 100 99 50 9 8 12 7 5 5 24 96 83 44 97 43 54 84 100 96
100 100 100 100 100 100 100 100 100 100 50 94 100 99 100 100 100 100 100 100 100 100 99 43 42 50 91 94 100 100 93 82 88 85 59 80 95 87 91 96 100 98 100 92
100 100 100 100 100 100 100 100 100 100 100 100 59 5 5 80 100 100 100 100 100 88 58 87 100 100 100 95 93 92 92 100 100 100 100 100 100 100 100 100 85 100 100 100
93 91 100 100 100 90 5 79 100 100 100 32 100 100 94 94 9 5 92 99 100 100 100 100 100 100 100 100 100 100 100 100 99 100 100 100 100 100 100 100 100 100 100 100
94 100 100 99 100 79 0 0 6 66 5 16 98 96 14 8 24 5 5 39 62 54 32 29 80 99 100 100 100 100 100 100 100 100 100 100 100 97 100 100 100 100 100 100
9 58 98 94 100 91 0 63 44 23 89 57 4 5 10 63 74 72 30 13 36 30 14 53 75 71 94 97 90 89 100 93 73 100 100 97 73 100 100 100 100 100 100 100
20 62 52 10 14 29 0 0 0 23 25 44 51 69 100 77 47 67 88 77 78 77 80 71 94 97 100 100 86 69 90 100 90 92 99 97 100 100 100 100 100 100 100 100
5 8 0 1 0 0 0 1 0 0 1 52 100 88 70 53 50 92 15 20 17 17 5 5 66 100 100 78 100 100 100 100 100 100 100 100 100 100 100 100 100 100 100 100
1 2 0 0 0 3 38 100 100 51 0 0 0 12 41 76 94 100 100 100 100 96 86 5 57 100 100 100 100 100 100 100 100 100 100 100 100 100 100 100 100 100 100 100
4 0 2 0 0 6 0 28 100 100 100 95 52 34 15 4 4 3 5 5 5 5 5 14 89 100 100 100 100 100 100 100 100 100 100 100 100 100 100 100 100 100 100 100

GFSCGP_prec_cloud_168.txt.gz
Cloud_Cover
100 100 99 100 100 100 100 100 100 100 100 73 100 100 100 100 12 38 100 100 96 26 7 99 92 100 99 14 5 5 5 5 5 5 5 5 5 18 36 84 6 5 5 100
100 61 100 100 100 100 100 100 100 100 100 66 88 100 100 100 100 100 100 98 57 65 8 24 6 100 97 9 5 5 5 5 5 5 5 5 5 84 100 97 59 10 6 30
100 89 100 100 100 100 100 96 100 100 100 100 100 63 100 100 100 100 100 100 100 100 100 37 75 92 42 55 43 5 5 5 5 5 16 91 100 76 10 39 88 100 68 100
94 100 99 86 96 100 100 100 100 100 100 100 100 11 100 100 100 100 100 100 100 100 100 100 100 100 99 100 100 100 100 100 100 100 100 100 16 9 94 90 87 79 100 100
39 100 100 100 100 100 46 100 100 100 100 100 100 100 100 100 100 100 100 100 100 100 100 100 100 100 22 94 100 100 97 29 18 7 5 3 5 42 100 50 14 30 84 99
56 100 87 100 100 100 100 100 96 100 100 78 98 100 46 100 100 100 100 100 100 100 99 100 100 100 82 51 14 44 42 56 32 5 5 5 5 63 100 99 59 94 99 100
95 94 100 95 95 100 88 72 100 100 90 29 96 98 83 100 100 100 100 100 100 100 59 46 25 8 31 29 30 95 98 100 100 96 76 26 5 25 64 72 96 100 100 100
50 86 97 95 100 100 100 100 100 100 45 5 6 4 48 83 99 100 100 100 100 100 100 99 66 87 56 16 6 5 6 6 22 90 71 5 5 5 68 100 100 100 100 100
100 80 100 100 100 100 100 79 92 100 43 9 3 1 5 94 100 88 100 100 100 100 100 100 100 100 53 9 34 29 14 21 15 10 5 7 5 5 5 23 42 91 64 28
100 100 100 100 100 100 100 100 97 86 83 73 3 1 19 99 100 100 100 100 100 100 100 100 100 100 100 98 100 82 30 12 99 100 100 61 5 5 4 5 8 5 5 5
100 100 100 100 100 100 100 100 100 100 100 25 6 1 91 100 100 92 13 46 96 100 100 100 100 100 100 100 100 92 70 73 90 69 73 5 5 18 53 32 5 5 5 5
100 100 100 100 100 100 100 99 100 100 43 40 5 1 48 100 98 6 22 29 34 100 96 100 100 100 100 100 100 100 100 100 100 100 100 100 100 100 22 5 5 5 4 5
100 100 100 100 100 100 100 100 100 100 100 99 78 6 100 4 5 5 5 5 86 78 87 100 100 100 100 100 100 100 98 99 79 5 7 8 11 5 7 5 5 5 5 8
100 100 100 69 100 100 100 100 100 100 100 9 44 2 85 54 49 5 0 4 60 99 100 100 100 100 100 98 86 99 100 100 100 100 97 55 67 65 6 39 60 54 79 68
100 100 100 98 100 100 100 100 100 100 76 60 42 30 95 100 94 85 6 5 5 5 33 5 17 12 24 32 7 40 26 6 6 24 37 96 100 98 97 61 53 82 100 96
100 100 100 100 100 100 100 100 100 100 100 100 20 5 96 100 100 93 100 100 100 27 5 15 5 5 5 5 5 9 36 42 14 46 70 10 6 9 31 76 100 100 100 78
100 93 100 100 100 100 100 81 97 100 100 100 100 100 100 100 100 93 66 27 23 76 94 91 67 63 27 85 98 74 96 92 41 12 5 21 74 100 100 100 100 100 85 100
95 100 100 100 100 100 100 100 100 89 78 99 100 50 24 71 100 54 31 84 82 92 90 44 25 48 30 34 37 72 94 99 51 99 100 100 100 100 100 100 100 100 100 100
99 100 100 100 70 66 100 100 100 100 91 98 26 33 100 100 99 5 32 94 37 5 5 5 5 10 31 64 99 100 100 100 100 100 100 100 100 100 100 100 100 100 100 100
100 100 100 100 100 100 26 39 90 96 96 90 100 100 100 100 19 5 76 69 52 77 85 15 40 17 47 24 24 61 86 37 58 75 60 100 100 100 100 100 100 100 100 100
98 100 100 100 100 82 26 5 18 51 3 2 23 77 82 79 25 5 7 10 5 9 54 65 76 90 88 92 94 100 100 100 100 100 90 96 100 100 100 100 100 100 100 100
100 100 100 100 100 79 5 3 1 1 8 14 2 5 82 56 15 15 62 5 4 5 9 14 28 78 97 96 99 99 100 99 75 73 100 100 100 100 100 100 100 100 100 100
100 100 99 85 3 1 0 0 0 0 1 2 0 1 53 100 100 95 100 96 7 5 7 5 5 100 100 100 100 92 100 100 100 100 100 92 92 100 100 100 100 100 100 100
100 100 92 21 0 1 0 0 0 0 0 0 1 1 35 61 66 83 100 100 9 5 5 5 5 53 100 100 100 100 11 36 71 12 78 100 100 100 100 100 100 100 100 100
6 13 6 0 0 0 0 0 0 0 0 0 5 4 4 5 27 100 78 90 100 100 56 17 5 5 91 100 89 100 100 100 100 86 100 100 100 100 100 100 100 100 100 100
0 0 1 0 0 0 0 0 0 0 0 0 0 0 0 2 62 95 98 100 100 100 100 100 100 96 100 100 100 100 100 100 100 100 100 100 100 100 100 100 100 100 100 100

GFSCGP_prec_cloud_171.txt.gz
Cloud_Cover
99 14 26 100 100 100 100 97 81 100 100 100 100 100 100 100 100 100 100 100 100 100 76 100 100 100 100 100 100 93 59 38 69 82 40 5 5 5 8 35 7 5 5 11
98 66 93 100 99 88 90 100 89 100 100 100 100 100 100 100 100 100 100 100 100 100 100 70 90 100 100 100 100 100 100 99 97 92 90 31 5 24 31 17 53 56 100 14
100 60 100 93 94 93 100 99 100 100 100 100 98 62 100 100 100 100 100 100 100 100 100 100 100 100 100 100 100 100 100 100 100 100 99 89 99 100 100 100 100 100 100 74
100 100 89 89 92 100 100 100 100 100 100 97 54 1 72 100 100 100 100 100 100 100 100 100 100 100 100 100 100 100 100 100 100 100 100 100 100 100 100 100 100 100 100 100
100 100 100 90 100 100 99 100 100 100 100 92 5 3 98 100 100 100 100 100 100 100 100 100 100 100 100 100 99 100 100 63 15 5 5 8 78 100 100 100 100 100 100 100
100 100 100 48 98 100 100 100 100 69 42 37 10 56 27 100 100 100 100 100 100 100 100 100 82 79 100 100 51 5 6 37 5 5 5 5 5 99 100 100 100 100 100 21
100 100 100 100 100 100 96 100 100 100 74 5 22 5 92 37 100 100 100 100 100 100 100 100 100 99 32 46 73 7 4 1 1 3 5 5 5 46 100 100 100 96 51 58
100 100 100 100 100 100 100 100 100 100 52 5 5 3 71 81 100 100 100 100 100 100 99 65 79 100 22 6 5 5 5 5 0 1 5 5 5 6 71 77 86 98 99 100
100 100 100 100 100 100 100 95 92 100 52 9 4 4 68 100 100 100 100 100 100 100 100 100 100 100 99 97 100 82 28 7 5 5 5 5 3 4 5 5 5 14 29 83
100 100 100 100 100 100 100 100 100 85 99 84 0 3 97 100 100 100 100 100 100 100 100 100 100 100 100 93 49 64 73 73 43 27 5 5 7 66 10 5 2 4 5 5
100 100 100 100 96 100 100 100 100 100 100 74 6 3 34 100 100 100 100 92 100 100 100 100 100 100 100 100 100 100 86 65 57 5 5 79 91 54 48 11 5 12 37 48
100 100 100 100 97 77 97 68 100 100 54 63 41 16 85 100 100 97 91 93 13 22 66 82 100 100 100 100 100 100 95 96 71 38 79 93 22 38 32 9 13 86 100 100
100 100 100 99 99 32 18 97 100 94 100 99 53 6 100 22 5 23 91 6 5 42 37 21 81 100 79 86 99 100 100 96 87 95 98 86 91 99 100 100 100 100 100 98
100 100 100 100 100 100 100 100 100 100 95 6 13 4 99 44 5 5 1 4 5 3 5 9 100 100 100 94 98 100 100 100 100 100 98 100 100 100 100 100 100 100 100 100
100 100 100 100 100 100 100 100 100 100 5 97 5 5 97 100 45 4 5 5 4 4 5 5 5 5 8 41 74 69 10 23 96 86 52 47 70 96 100 99 100 100 100 100
100 100 100 100 100 100 100 100 100 84 64 99 6 5 55 100 13 4 5 5 0 0 5 4 2 5 5 5 6 15 23 93 100 100 100 100 100 100 100 100 100 100 100 100
100 100 100 100 100 100 100 100 100 100 100 100 100 100 100 52 100 58 12 5 5 5 1 4 0 0 0 2 5 5 5 5 6 8 23 49 41 25 33 88 100 100 100 100
99 100 100 99 100 100 100 100 100 100 100 100 100 100 88 19 10 5 5 53 13 5 5 5 4 5 5 5 4 5 5 5 5 5 6 49 72 51 71 82 77 100 100 100
100 100 100 100 100 100 95 96 100 100 100 100 100 100 100 100 30 3 92 68 5 5 5 7 5 5 21 54 88 69 42 75 74 54 53 58 68 67 64 75 75 64 97 100
100 100 100 100 100 100 6 31 98 100 100 100 100 78 70 91 51 38 97 96 34 5 5 5 5 1 4 10 5 5 5 5 6 6 6 5 12 93 67 73 100 100 100 100
100 100 100 100 100 97 74 99 81 33 30 75 62 52 6 9 6 2 2 4 12 5 19 12 9 12 25 15 40 64 77 98 94 96 100 100 75 93 96 95 100 100 100 100
100 100 100 100 100 96 47 5 31 17 5 2 1 4 5 2 2 3 4 0 1 2 12 21 90 93 88 37 72 49 60 100 100 99 100 98 69 94 99 100 100 100 100 100
100 100 100 100 86 95 69 6 5 4 1 0 0 0 0 0 0 0 0 0 0 0 5 5 51 100 100 100 100 100 99 99 100 95 98 100 100 100 100 98 100 100 100 100
28 98 100 100 95 98 5 0 0 0 0 0 0 0 0 0 0 0 0 0 5 5 5 5 5 5 81 100 100 100 100 100 100 100 100 100 100 99 100 100 100 100 100 100
100 100 100 36 44 5 4 2 0 0 0 0 0 0 0 0 0 0 4 5 5 5 5 5 5 5 24 62 87 100 100 100 100 100 100 100 100 100 100 100 100 100 100 100
97 17 0 0 0 0 0 0 0 0 0 0 0 2 0 0 2 3 5 5 5 5 5 5 5 10 63 100 100 100 100 100 100 100 100 100 100 100 100 100 100 100 100 100